Tracking 25710 objects as of 6-Jul-2022
HD Live streaming from Space Station
objects crossing your sky now

STARLINK-2620

Track STARLINK-2620 now!
10-day predictions
STARLINK-2620 is classified as:


NORAD ID: 48453
Int'l Code: 2021-040AB
Perigee: 553.1 km
Apogee: 555.6 km
Inclination: 53.1 °
Period: 95.6 minutes
Semi major axis: 6925 km
RCS: Unknown
Launch date: May 9, 2021
Source: United States (US)
Launch site: AIR FORCE EASTERN TEST RANGE (AFETR)
aabbcc
Your satellite tracking list
Your tracking list is empty




NASA's NSSDC Master Catalog

Two Line Element Set (TLE):
1 48453U 21040AB  22186.44776339 -.00000037  00000-0  16452-4 0  9996
2 48453  53.0564  91.6679 0001841  73.4069 286.7122 15.06403061 64172
Source of the keplerian elements: AFSPC